Date String (YYYY-MM-DD hh:mm:ss) UTC,Instrument flags,Ambient pressure (hPa),Sample flow (lpm),Bypass flow (lpm),Sample temperature (°C),Ambient temperature (°C),ASC tube jacket temperature (°C),LED temperature (°C),Box temperature (°C),Sample RH (%),Span deviation,Mass concentration (μg/m³),Mass concentration (μg/m³),Mass concentration (μg/m³)
DateTimeUTC,F1_M11,P_M11,Q1_M11,Q2_M11,T1_M11,T2_M11,T3_M11,T4_M11,T5_M11,U1_M11,ZSPAN_M11,X0_M11,X2_M11,X1_M11
2022-10-31 18:00:00,,0823.7,4.98,0.00,28.9,27.7,00.0,37.6,30.7,09.4,0000.0,0010.96,0003.89,0003.43
2022-10-31 18:01:00,,0823.7,5.03,0.00,28.9,27.7,00.0,37.6,30.7,09.3,0000.0,0010.14,0003.87,0003.42
2022-10-31 18:02:00,,0823.7,4.99,0.00,28.9,27.7,00.0,37.6,30.7,09.3,0000.0,0010.62,0003.87,0003.41
2022-10-31 18:03:00,,0823.7,5.00,0.00,28.9,27.8,00.0,37.6,30.8,09.3,0000.0,0010.72,0003.85,0003.40
2022-10-31 18:04:00,,0823.7,5.00,0.00,29.0,27.8,00.0,37.7,30.8,09.2,0000.0,0010.45,0003.86,0003.39
2022-10-31 18:05:00,,0823.7,5.00,0.00,29.0,27.8,00.0,37.7,30.8,09.1,0000.0,0009.66,0003.87,0003.37
2022-10-31 18:06:00,,0823.7,5.01,0.00,29.0,27.8,00.0,37.7,30.8,09.1,0000.0,0009.30,0003.85,0003.34
2022-10-31 18:07:00,,0823.7,5.00,0.00,29.0,27.9,00.0,37.7,30.9,08.9,0000.0,0009.61,0003.84,0003.31
2022-10-31 18:08:00,,0823.7,5.01,0.00,29.0,27.9,00.0,37.7,30.9,08.6,0000.0,0009.50,0003.84,0003.27
2022-10-31 18:09:00,,0823.7,5.00,0.00,29.1,27.9,00.0,37.8,30.9,08.5,0000.0,0009.31,0003.81,0003.24
2022-10-31 18:10:00,,0823.7,5.00,0.00,29.1,27.9,00.0,37.8,30.9,08.5,0000.0,0009.91,0003.79,0003.21
2022-10-31 18:11:00,,0823.6,5.00,0.00,29.1,27.9,00.0,37.8,30.9,08.7,0000.0,0009.66,0003.73,0003.17
2022-10-31 18:12:00,,0823.6,5.00,0.00,29.1,27.9,00.0,37.8,30.9,08.7,0000.0,0009.86,0003.72,0003.14
2022-10-31 18:13:00,,0823.6,4.98,0.00,29.1,27.9,00.0,37.8,30.9,08.8,0000.0,0009.50,0003.71,0003.11
2022-10-31 18:14:00,,0823.5,5.01,0.00,29.1,28.0,00.0,37.8,31.0,08.9,0000.0,0009.28,0003.69,0003.07
2022-10-31 18:15:00,,0823.6,5.02,0.00,29.2,28.0,00.0,37.9,31.0,08.8,0000.0,0009.69,0003.64,0003.04
2022-10-31 18:16:00,,0823.4,5.00,0.00,29.2,28.0,00.0,37.9,31.0,08.5,0000.0,0009.86,0003.59,0003.01
2022-10-31 18:17:00,,0823.5,4.97,0.00,29.2,28.0,00.0,37.9,31.1,08.7,0000.0,0009.84,0003.59,0002.98
2022-10-31 18:18:00,,0823.4,5.02,0.00,29.2,28.1,00.0,37.9,31.1,08.8,0000.0,0009.24,0003.57,0002.96
2022-10-31 18:19:00,,0823.4,4.98,0.00,29.2,28.1,00.0,37.9,31.1,08.7,0000.0,0009.23,0003.55,0002.94
2022-10-31 18:20:00,,0823.4,5.00,0.00,29.3,28.1,00.0,38.0,31.1,08.7,0000.0,0009.35,0003.59,0002.93
2022-10-31 18:21:00,,0823.4,5.00,0.00,29.3,28.1,00.0,38.0,31.1,08.6,0000.0,0009.05,0003.57,0002.91
2022-10-31 18:22:00,,0823.4,5.00,0.00,29.3,28.1,00.0,38.0,31.1,08.4,0000.0,0009.42,0003.58,0002.90
2022-10-31 18:23:00,,0823.4,5.01,0.00,29.3,28.1,00.0,38.0,31.1,08.3,0000.0,0009.26,0003.59,0002.90
2022-10-31 18:24:00,,0823.3,5.01,0.00,29.3,28.1,00.0,38.0,31.2,08.2,0000.0,0009.32,0003.58,0002.89
2022-10-31 18:25:00,,0823.3,5.00,0.00,29.3,28.1,00.0,38.1,31.2,08.1,0000.0,0009.30,0003.57,0002.87
2022-10-31 18:26:00,,0823.3,5.00,0.00,29.3,28.2,00.0,38.1,31.2,08.1,0000.0,0009.10,0003.56,0002.88
2022-10-31 18:27:00,,0823.4,5.00,0.00,29.4,28.2,00.0,38.1,31.2,08.3,0000.0,0009.40,0003.56,0002.86
2022-10-31 18:28:00,,0823.4,5.00,0.00,29.4,28.2,00.0,38.1,31.3,08.3,0000.0,0009.94,0003.54,0002.87
2022-10-31 18:29:00,,0823.3,5.00,0.00,29.4,28.2,00.0,38.1,31.3,08.2,0000.0,0009.78,0003.55,0002.88
2022-10-31 18:30:00,,0823.3,5.00,0.00,29.4,28.2,00.0,38.1,31.2,08.2,0000.0,0009.80,0003.56,0002.88
2022-10-31 18:31:00,,0823.3,5.00,0.00,29.4,28.2,00.0,38.1,31.3,08.1,0000.0,0009.81,0003.51,0002.87
2022-10-31 18:32:00,,0823.2,4.97,0.00,29.4,28.2,00.0,38.2,31.3,08.2,0000.0,0009.31,0003.48,0002.87
2022-10-31 18:33:00,,0823.2,5.00,0.00,29.5,28.2,00.0,38.2,31.3,08.3,0000.0,0008.63,0003.43,0002.86
2022-10-31 18:34:00,,0823.2,5.00,0.00,29.5,28.3,00.0,38.2,31.3,08.1,0000.0,0008.56,0003.40,0002.85
2022-10-31 18:35:00,,0823.3,5.00,0.00,29.5,28.3,00.0,38.2,31.3,08.1,0000.0,0008.36,0003.38,0002.86
2022-10-31 18:36:00,,0823.3,5.00,0.00,29.5,28.3,00.0,38.2,31.3,08.1,0000.0,0008.35,0003.37,0002.88
2022-10-31 18:37:00,,0823.3,5.00,0.00,29.5,28.3,00.0,38.3,31.3,08.0,0000.0,0008.14,0003.37,0002.87
2022-10-31 18:38:00,,0823.2,5.01,0.00,29.5,28.3,00.0,38.3,31.4,08.0,0000.0,0007.41,0003.38,0002.88
2022-10-31 18:39:00,,0823.2,5.01,0.00,29.5,28.4,00.0,38.3,31.4,07.9,0000.0,0006.36,0003.39,0002.88
2022-10-31 18:40:00,,0823.2,5.00,0.00,29.6,28.4,00.0,38.3,31.4,07.9,0000.0,0006.11,0003.40,0002.88
2022-10-31 18:41:00,,0823.1,5.01,0.00,29.6,28.4,00.0,38.3,31.5,07.9,0000.0,0006.12,0003.41,0002.89
2022-10-31 18:42:00,,0823.1,5.00,0.00,29.6,28.4,00.0,38.3,31.5,07.8,0000.0,0005.87,0003.43,0002.90
2022-10-31 18:43:00,,0823.1,5.00,0.00,29.6,28.4,00.0,38.3,31.5,07.9,0000.0,0005.97,0003.44,0002.90
2022-10-31 18:44:00,,0823.1,5.00,0.00,29.6,28.4,00.0,38.4,31.5,07.9,0000.0,0006.10,0003.47,0002.91
2022-10-31 18:45:00,,0823.2,5.00,0.00,29.6,28.4,00.0,38.4,31.5,07.9,0000.0,0006.12,0003.49,0002.91
2022-10-31 18:46:00,,0823.1,5.00,0.00,29.6,28.4,00.0,38.4,31.5,07.8,0000.0,0006.26,0003.52,0002.92
2022-10-31 18:47:00,,0823.1,5.00,0.00,29.7,28.5,00.0,38.4,31.5,07.8,0000.0,0006.90,0003.53,0002.91
2022-10-31 18:48:00,,0823.1,5.00,0.00,29.7,28.5,00.0,38.4,31.5,07.9,0000.0,0007.52,0003.54,0002.91
2022-10-31 18:49:00,,0823.1,5.00,0.00,29.7,28.5,00.0,38.4,31.5,07.7,0000.0,0007.70,0003.52,0002.91
2022-10-31 18:50:00,,0823.0,5.00,0.00,29.7,28.5,00.0,38.4,31.5,07.8,0000.0,0008.13,0003.52,0002.90
2022-10-31 18:51:00,,0823.1,5.00,0.00,29.7,28.5,00.0,38.4,31.5,07.9,0000.0,0008.15,0003.50,0002.89
2022-10-31 18:52:00,,0823.1,5.00,0.00,29.7,28.5,00.0,38.5,31.5,07.9,0000.0,0008.15,0003.50,0002.89
2022-10-31 18:53:00,,0823.0,4.99,0.00,29.8,28.6,00.0,38.5,31.6,07.8,0000.0,0008.08,0003.50,0002.89
2022-10-31 18:54:00,,0822.9,5.00,0.00,29.8,28.6,00.0,38.5,31.6,07.7,0000.0,0008.32,0003.54,0002.91
2022-10-31 18:55:00,,0822.9,5.00,0.00,29.8,28.6,00.0,38.5,31.6,07.7,0000.0,0008.43,0003.57,0002.91
2022-10-31 18:56:00,,0823.0,5.00,0.00,29.8,28.6,00.0,38.5,31.6,07.7,0000.0,0008.49,0003.58,0002.91
2022-10-31 18:57:00,,0823.0,5.00,0.00,29.8,28.6,00.0,38.6,31.6,07.7,0000.0,0008.54,0003.59,0002.91
2022-10-31 18:58:00,,0823.0,5.00,0.00,29.8,28.6,00.0,38.6,31.7,07.8,0000.0,0008.21,0003.60,0002.93
2022-10-31 18:59:00,,0823.0,5.00,0.00,29.9,28.7,00.0,38.6,31.7,07.7,0000.0,0007.90,0003.62,0002.93
